All
Vereeniging Airport (Vereeniging, South Africa) FAVV Weather
|
Vereeniging, South Africa (FAVV)
Clear skies
Light winds |
|
75 °F |
There is no TAF data available at FAVV or any nearby airports.
Recent FAVV METAR history
| Date | Time (SAST) | Flight Rules | Wind Dir. | Speed | Type | Height AGL (ft) | Visibility | Temp (°C) | Temp (°F) | Dew Point (°C) | Dew Point (°F) | Rel. Humid. | Pressure | Density Altitude | Remarks |
|---|---|---|---|---|---|---|---|---|---|---|---|---|---|---|---|
| gap in available data | |||||||||||||||
| 03-May | 12:00PM | n/a | 280° | 6 kt | Missing | 24° | 75° | 7° | 44° | 34% | 1028 mb | 6,452 ft | |||
| 03-May | 11:00AM | n/a | 230° | 5 kt | Missing | 22° | 71° | 10° | 50° | 46% | 1028 mb | 6,212 ft | |||
| 03-May | 10:00AM | n/a | 10° | 3 kt | Missing | 20° | 68° | 11° | 51° | 56% | 1029 mb | 5,942 ft | |||
| 03-May | 09:00AM | n/a | 360° | 3 kt | Missing | 17° | 62° | 11° | 51° | 68% | 1029 mb | 5,582 ft | |||
| 03-May | 08:00AM | n/a | 320° | 2 kt | Missing | 11° | 51° | 10° | 50° | 94% | 1029 mb | 4,862 ft | |||
| 03-May | 07:00AM | n/a | 300° | 3 kt | Missing | 6° | 42° | 6° | 42° | 100% | 1028 mb | 4,292 ft | |||
| 03-May | 06:00AM | n/a | 230° | 1 kt | Missing | 7° | 44° | 6° | 42° | 93% | 1028 mb | 4,412 ft | |||
| 03-May | 05:00AM | n/a | 280° | 2 kt | Missing | 7° | 44° | 6° | 42° | 93% | 1027 mb | 4,441 ft | |||
| 03-May | 04:00AM | n/a | 340° | 3 kt | Missing | 7° | 44° | 6° | 42° | 93% | 1027 mb | 4,441 ft | |||
| 03-May | 03:00AM | n/a | 280° | 4 kt | Missing | 7° | 44° | 6° | 42° | 93% | 1027 mb | 4,441 ft | |||
| 03-May | 02:00AM | n/a | 260° | 2 kt | Missing | 8° | 46° | 7° | 44° | 93% | 1027 mb | 4,561 ft | |||
| 03-May | 01:00AM | n/a | 130° | 1 kt | Missing | 9° | 48° | 7° | 44° | 87% | 1028 mb | 4,652 ft | |||
| 03-May | 12:00AM | n/a | 290° | 2 kt | Missing | 9° | 48° | 7° | 44° | 87% | 1027 mb | 4,681 ft | |||
| gap in available data | |||||||||||||||
| 02-May | 10:00PM | n/a | 270° | 3 kt | Missing | 11° | 51° | 8° | 46° | 82% | 1027 mb | 4,921 ft | |||
| 02-May | 09:00PM | n/a | 290° | 3 kt | Missing | 11° | 51° | 8° | 46° | 82% | 1027 mb | 4,921 ft | |||
| 02-May | 08:00PM | n/a | 250° | 1 kt | Missing | 14° | 57° | 8° | 46° | 67% | 1027 mb | 5,281 ft | |||
| 02-May | 07:00PM | n/a | 200° | 2 kt | Missing | 16° | 60° | 8° | 46° | 59% | 1026 mb | 5,551 ft | |||
| 02-May | 06:00PM | n/a | 170° | 2 kt | Missing | 19° | 66° | 8° | 46° | 49% | 1026 mb | 5,911 ft | |||
| 02-May | 05:00PM | n/a | 210° | 4 kt | Missing | 22° | 71° | 7° | 44° | 38% | 1025 mb | 6,300 ft | |||
| 02-May | 04:00PM | n/a | 200° | 4 kt | Missing | 23° | 73° | 8° | 46° | 38% | 1025 mb | 6,420 ft | |||
| 02-May | 03:00PM | n/a | 230° | 5 kt | Missing | 23° | 73° | 8° | 46° | 38% | 1024 mb | 6,450 ft | |||
| 02-May | 02:00PM | n/a | 240° | 4 kt | Missing | 22° | 71° | 9° | 48° | 43% | 1025 mb | 6,300 ft | |||
| 02-May | 01:00PM | n/a | 240° | 4 kt | Missing | 21° | 69° | 9° | 48° | 46% | 1026 mb | 6,151 ft | |||
| 02-May | 12:00PM | n/a | 210° | 2 kt | Missing | 19° | 66° | 9° | 48° | 52% | 1026 mb | 5,911 ft | |||
Login
| Your browser is unsupported. upgrade your browser |
